GFSMW_700_spd_258.txt.gz
Wind_Speed
22 23 25 22 26 25 25 32 37 41 31 30 30 31 33 33 33 32 30 28 27 23 22 23 24 26 26 26 26 26 26 27 28 31 33 32 33 35 36 36 38 40 41
18 20 22 26 26 24 26 33 38 27 21 23 25 26 27 32 35 36 36 36 34 32 29 26 26 27 29 30 30 31 32 33 32 34 36 39 39 40 40 40 38 38 39
19 13 22 25 24 26 25 29 34 32 26 26 28 27 26 27 29 30 32 35 39 39 38 35 34 35 36 37 38 39 41 41 41 42 42 43 46 43 42 41 40 38 38
12 15 16 18 18 21 25 29 32 34 34 29 28 30 32 31 29 28 30 29 31 35 39 40 40 40 42 42 43 43 44 44 45 46 47 47 46 47 45 41 40 40 43
11 16 12 9 11 14 17 19 29 35 36 36 35 35 31 28 25 26 28 29 30 29 31 37 40 42 44 46 47 48 47 47 48 49 49 50 47 41 45 44 43 45 45
18 20 19 18 19 19 18 16 15 26 35 35 26 15 15 17 20 21 24 25 27 30 33 36 39 43 46 45 49 48 47 51 54 46 47 51 47 40 41 44 47 44 40
18 18 18 21 17 14 12 11 7 9 10 10 8 7 8 11 13 16 18 21 23 26 29 33 37 40 41 41 41 41 41 45 44 47 43 44 42 41 39 38 40 39 35
18 16 20 19 18 15 13 10 9 9 10 10 11 13 16 18 20 23 25 27 30 33 36 39 41 43 43 42 41 40 41 41 41 40 44 45 43 38 37 35 35 38 36
22 22 23 24 21 19 17 14 14 14 15 16 17 20 22 23 24 27 30 33 35 38 40 43 46 44 44 40 38 40 40 40 40 38 36 36 38 37 36 36 34 33 36
25 23 27 27 25 23 20 19 19 18 18 18 19 20 22 25 28 30 33 36 39 41 45 47 45 42 42 42 42 37 37 36 36 35 36 37 37 38 41 45 42 46 41
27 27 31 29 26 26 23 21 19 19 20 20 21 23 24 25 28 32 34 37 40 42 45 47 49 45 42 43 44 43 39 39 41 40 40 38 40 43 42 44 50 48 50
33 33 38 33 27 27 23 22 23 23 23 25 26 27 28 30 34 38 40 40 41 42 43 42 41 40 40 41 37 40 43 42 40 40 37 37 40 46 49 62 55 51 43
38 40 45 37 30 28 26 25 25 23 22 20 20 24 29 35 40 43 42 42 42 42 41 39 37 36 36 38 37 35 27 34 37 41 38 41 48 52 47 47 46 49 35
42 45 47 41 30 31 28 25 23 19 18 19 23 27 30 36 40 39 39 39 38 36 35 33 30 31 30 30 32 33 36 38 36 41 39 40 41 42 46 48 50 47 46
44 44 45 35 28 28 25 22 18 16 18 23 25 28 33 38 39 41 43 42 43 45 43 41 39 38 35 36 37 36 37 38 39 40 41 38 40 46 48 45 47 51 51
37 40 38 31 29 26 22 19 16 18 22 26 29 32 35 40 42 44 43 43 42 40 39 42 43 47 42 32 34 40 43 44 45 45 43 44 44 45 45 44 48 50 50
38 35 34 32 28 23 21 18 20 23 24 25 31 35 38 42 44 46 47 39 39 37 37 36 38 40 45 48 41 40 45 49 48 48 48 47 48 48 48 48 47 48 45
32 37 36 29 24 20 18 19 20 21 24 29 33 38 41 42 45 49 40 36 36 33 34 34 36 37 38 37 38 41 49 48 45 46 47 47 48 48 47 47 47 47 47
35 37 33 27 24 20 20 20 22 27 31 36 40 43 42 44 44 38 34 33 32 32 33 33 34 36 37 38 38 38 38 38 38 37 37 38 39 39 38 37 37 39 41
39 36 33 24 19 19 19 20 25 30 36 43 43 44 41 36 32 30 31 32 33 33 33 32 32 32 31 30 30 30 30 30 29 29 27 27 26 25 24 24 24 24 25
40 35 28 21 18 19 20 27 32 37 40 40 45 38 31 28 29 31 31 31 32 31 29 28 28 29 29 28 29 29 29 28 28 27 26 25 25 25 25 23 23 22 22
41 33 22 17 17 24 33 38 38 37 37 38 34 28 28 28 29 29 30 29 29 28 28 30 31 33 33 33 31 31 30 30 29 27 27 26 26 25 26 27 27 27 26
30 25 21 22 27 31 35 37 36 36 33 26 27 26 26 27 28 28 29 29 29 31 32 33 33 31 30 30 30 30 31 31 31 30 29 29 28 27 27 26 26 28 28
31 26 22 21 27 33 33 32 31 29 24 25 26 25 26 27 28 28 28 29 30 31 30 29 28 28 27 28 28 28 27 28 28 28 28 28 28 28 26 27 28 28 28
18 21 23 27 29 28 28 27 23 24 24 24 25 26 26 26 27 28 29 30 30 30 28 29 30 31 29 29 29 28 26 26 25 26 27 27 27 27 27 24 24 24 23
19 22 26 28 27 23 21 20 21 22 23 24 24 24 25 26 28 28 27 30 31 31 33 34 35 34 34 32 31 30 28 28 27 26 26 25 25 23 22 20 18 18 17

GFSMW_700_spd_264.txt.gz
Wind_Speed
24 22 21 21 25 33 31 35 31 27 29 29 29 30 30 25 25 25 28 31 31 31 31 29 27 25 27 26 26 27 28 27 29 32 34 35 35 36 38 40 43 43 42
29 28 25 22 23 30 36 31 33 32 30 31 29 27 27 26 25 25 29 31 30 29 32 32 32 31 31 34 34 33 34 35 36 39 42 44 45 44 46 48 48 50 48
29 32 31 28 27 29 30 39 35 30 29 30 29 27 28 29 28 26 27 30 31 29 29 30 33 33 32 32 36 38 37 37 35 35 38 45 53 51 50 52 53 53 53
29 27 29 29 26 27 29 32 34 36 35 33 32 30 29 29 29 30 29 29 30 30 30 31 31 30 27 27 26 27 30 38 38 45 49 51 57 59 61 61 62 61 59
29 33 34 32 28 24 24 28 32 31 29 26 25 30 31 30 30 28 32 32 31 29 27 28 26 27 32 33 30 33 41 41 45 43 44 49 53 56 57 57 55 52 70
30 36 40 33 26 23 22 24 23 22 23 23 28 32 29 29 27 29 22 19 18 19 21 21 23 25 27 30 31 33 36 37 40 41 43 48 50 50 60 56 53 56 55
39 38 40 40 27 24 21 24 26 25 24 25 32 30 26 25 26 20 17 16 16 18 21 24 27 29 31 33 35 37 39 42 44 45 46 49 52 52 56 57 55 53 55
30 35 42 41 28 24 20 23 24 22 20 20 23 24 26 25 19 15 16 17 18 20 21 24 27 29 32 34 37 40 41 41 42 45 48 51 52 52 54 56 54 54 52
24 36 41 40 33 27 27 22 22 19 18 15 16 22 19 19 19 19 18 19 19 21 22 25 30 34 36 38 39 42 43 43 44 44 47 51 54 53 54 53 54 48 49
21 28 32 39 36 35 27 22 22 19 16 15 15 18 21 21 20 19 19 19 20 23 27 32 37 41 43 45 44 43 44 43 43 44 45 49 53 54 55 56 54 48 38
34 26 44 47 43 35 28 22 24 23 21 20 22 23 23 22 19 19 18 21 24 29 33 37 42 45 45 46 46 45 44 43 42 40 40 40 42 43 48 52 57 49 23
29 40 35 38 35 31 30 27 28 29 26 24 22 20 19 20 20 19 21 24 29 33 37 42 45 47 45 46 47 43 43 43 41 40 42 43 43 46 40 41 36 32 35
21 23 37 37 37 42 33 31 30 28 27 25 23 21 21 21 21 21 23 27 31 35 41 44 46 47 47 46 46 42 42 41 41 42 43 44 44 43 43 37 39 39 38
24 18 34 36 38 40 38 29 31 29 27 26 25 23 21 20 21 23 26 30 32 36 41 44 48 48 46 42 40 39 40 38 38 38 40 42 42 41 42 45 48 47 41
32 24 31 34 42 41 29 32 33 30 29 26 24 24 22 22 24 26 27 30 34 39 44 47 47 44 40 36 35 37 36 35 37 37 38 39 41 43 44 47 49 45 46
32 27 26 44 43 42 22 43 42 30 31 32 32 24 22 24 24 26 29 33 39 42 43 41 40 38 35 34 34 34 35 35 35 35 36 36 37 39 40 40 42 42 43
28 23 36 47 49 49 40 47 42 31 30 31 31 23 23 24 26 28 34 39 41 40 39 37 35 34 35 36 35 34 34 32 32 33 33 32 32 33 33 34 34 34 33
24 33 28 29 39 40 41 35 32 30 31 27 21 19 22 25 28 33 36 40 42 37 35 34 34 34 34 33 33 33 32 32 32 33 33 33 33 32 31 31 31 31 31
28 31 33 37 33 36 37 35 25 23 24 21 18 21 23 27 30 36 41 37 33 33 33 34 34 34 33 32 32 33 33 33 34 34 33 32 31 32 31 31 29 29 28
34 30 38 36 36 36 36 36 38 28 26 27 22 24 27 30 37 40 37 33 33 34 34 35 35 35 35 33 34 33 33 32 31 31 31 32 32 32 32 32 30 28 28
25 32 34 34 38 41 40 44 29 26 22 15 20 24 29 33 34 34 34 33 34 34 33 34 34 35 35 35 35 35 35 34 33 34 33 34 34 34 33 32 33 32 30
26 38 41 41 42 43 41 35 28 21 17 20 22 27 31 31 32 31 32 33 32 32 33 33 34 35 35 35 36 38 39 39 38 36 35 34 33 32 32 31 31 31 32
42 42 44 42 40 43 40 34 25 14 13 18 25 29 31 28 28 29 31 30 31 31 33 33 33 35 37 37 38 38 38 39 39 40 39 37 36 34 32 32 30 29 30
38 47 38 37 39 39 28 18 13 13 17 21 27 28 25 26 27 28 28 30 31 32 36 38 38 38 39 41 42 42 41 41 41 41 40 39 38 37 35 33 31 29 28
36 39 36 39 35 21 12 13 17 21 22 24 22 21 22 24 25 27 29 31 35 38 40 41 43 44 45 46 47 48 47 46 45 45 43 42 39 38 35 32 30 28 26
42 32 38 26 22 15 18 17 16 15 14 14 18 20 22 24 25 27 31 35 37 39 41 43 45 45 47 48 49 50 50 49 47 45 44 43 40 38 34 31 28 26 24

GFSMW_700_spd_270.txt.gz
Wind_Speed
26 26 29 30 31 32 34 35 34 34 33 37 37 36 36 35 36 36 31 31 20 22 25 27 29 30 31 32 34 33 33 34 33 35 35 33 31 36 37 39 44 33 41
33 32 34 33 34 36 40 41 36 33 35 33 32 34 35 34 38 39 40 37 35 25 22 22 27 29 30 31 33 35 35 36 35 34 35 34 30 31 35 32 31 32 32
30 36 38 37 33 36 23 27 31 33 30 35 34 34 33 34 33 32 34 40 36 23 25 25 24 24 28 30 30 28 29 30 31 29 31 35 37 33 34 36 38 37 38
37 37 38 40 33 33 28 22 27 29 31 30 35 35 37 33 32 29 29 31 39 33 26 27 24 26 32 31 29 26 24 26 27 29 32 34 37 39 41 37 39 42 43
30 33 36 40 32 34 30 29 25 26 30 33 35 37 34 33 30 28 27 28 31 29 26 27 26 33 29 23 21 18 20 23 25 28 32 35 38 40 41 45 44 46 47
31 32 32 41 41 35 35 37 28 23 27 32 34 33 28 28 27 28 29 31 35 32 24 24 32 22 18 17 17 17 20 25 29 31 34 37 40 42 43 45 47 50 49
31 29 40 44 41 31 32 39 34 26 25 31 30 29 30 28 29 32 36 33 33 30 23 25 26 20 16 17 17 19 23 27 31 34 36 39 41 43 45 46 46 48 45
27 21 28 42 39 33 31 36 42 28 29 30 30 29 30 31 34 37 35 35 31 24 22 28 26 19 19 19 17 21 25 30 34 37 41 42 43 43 44 44 45 45 44
25 23 18 30 33 21 21 25 26 27 33 27 25 28 33 35 36 32 32 29 28 26 30 29 23 22 20 20 21 24 29 32 37 43 47 46 44 43 41 40 40 42 45
28 24 20 17 20 16 14 24 26 23 22 23 20 25 25 24 25 28 27 24 24 25 27 24 22 23 22 23 24 29 33 38 45 50 50 45 42 40 38 37 37 38 41
25 28 31 26 18 16 13 17 27 23 17 17 19 20 20 24 22 22 25 27 27 26 23 23 24 24 26 26 29 34 38 44 48 50 45 41 38 35 34 34 35 35 37
28 27 21 24 23 16 12 19 23 34 34 28 33 18 24 23 23 25 26 28 26 23 24 25 26 26 28 28 34 37 41 47 51 46 40 36 35 34 34 32 33 34 37
34 27 22 19 18 17 17 21 26 32 41 39 28 25 18 25 27 29 30 26 24 24 24 25 25 28 29 31 37 39 45 52 51 43 38 36 36 36 37 36 35 34 35
29 31 25 17 24 21 21 23 26 22 27 25 29 27 25 21 21 21 21 22 22 22 23 26 27 27 30 34 37 43 49 52 44 39 37 38 38 36 34 34 34 34 33
35 24 25 24 18 18 26 27 27 23 31 30 21 22 33 38 18 16 18 21 23 23 24 27 28 30 32 35 42 47 47 42 39 38 38 38 39 39 37 35 35 35 35
39 33 25 23 23 20 22 19 29 34 27 28 20 23 21 25 37 40 35 36 43 40 45 38 29 34 37 41 46 45 42 39 37 36 36 38 39 38 39 39 37 36 35
36 36 32 30 25 21 23 23 24 28 37 30 25 25 26 25 27 32 38 36 31 29 29 30 34 37 39 41 41 41 38 38 37 36 35 36 38 37 36 37 38 37 37
32 37 34 34 33 28 22 23 24 25 28 31 34 32 28 28 28 36 41 33 34 33 30 30 32 37 37 39 39 37 37 38 36 37 37 37 37 38 39 37 37 37 37
32 33 33 35 34 30 27 25 28 26 28 34 33 27 26 32 27 33 37 32 25 23 22 27 34 36 36 35 35 35 37 37 36 36 39 40 41 40 41 40 38 36 35
30 31 28 26 24 18 20 25 28 34 33 35 33 36 35 31 33 39 38 26 20 19 25 33 38 39 38 37 37 36 37 39 40 41 42 42 43 42 42 43 42 40 38
31 28 30 25 26 22 27 37 28 35 36 39 41 36 31 39 32 23 22 18 18 25 31 36 37 36 37 37 38 41 42 44 44 45 45 45 47 48 48 48 49 48 46
29 28 28 26 22 25 24 36 38 37 44 43 37 27 37 24 16 16 16 17 18 21 27 31 33 35 37 40 42 43 46 48 50 51 51 51 50 50 50 51 52 53 52
32 32 33 31 22 23 24 33 35 36 32 25 22 21 15 15 16 19 17 18 20 23 27 30 33 36 38 41 43 45 47 48 49 50 52 52 52 51 50 48 49 50 50
34 36 37 34 19 21 23 30 28 23 15 14 14 15 14 13 13 13 16 19 23 27 30 33 35 37 39 41 43 44 45 46 47 48 48 47 47 47 48 46 43 43 43
33 36 34 20 11 18 22 21 18 18 17 14 9 7 9 10 12 16 19 22 26 29 31 34 37 39 41 42 44 47 48 47 46 45 44 43 42 41 39 38 38 38 36
32 29 22 20 13 18 21 18 17 17 15 3 8 8 9 12 16 19 23 25 28 31 34 35 37 38 40 40 40 41 41 41 41 40 42 41 39 37 35 33 30 29 28

GFSMW_700_spd_276.txt.gz
Wind_Speed
27 28 24 25 27 28 30 31 31 31 32 34 35 39 39 38 45 45 45 45 43 41 40 39 39 39 34 31 30 32 36 36 34 34 36 33 35 33 31 30 30 32 33
27 26 29 27 28 29 28 30 34 36 36 39 39 39 45 45 44 49 50 50 51 49 47 44 47 47 42 48 47 40 41 41 38 34 37 35 32 28 27 25 24 27 30
21 22 22 27 29 31 29 28 30 34 38 41 43 44 45 51 48 45 49 51 52 51 51 53 52 48 55 53 30 38 33 35 34 40 37 33 26 19 20 19 22 22 24
16 18 21 23 26 28 29 29 30 36 36 40 45 44 40 37 44 44 49 50 49 47 47 52 51 50 49 51 35 41 42 41 36 33 33 35 24 21 20 19 21 22 26
23 24 29 31 35 37 37 37 38 35 34 39 40 44 42 35 38 41 46 50 47 46 49 47 40 42 50 45 32 34 35 44 37 36 33 32 24 20 21 21 22 27 29
25 19 24 29 33 34 33 35 35 35 32 31 39 39 41 38 39 41 45 47 49 49 47 42 35 37 48 52 34 34 40 43 41 33 31 25 21 20 21 27 26 28 27
13 14 19 24 29 30 33 33 33 37 32 33 31 36 37 40 41 41 44 47 48 48 48 40 31 35 43 56 46 38 36 37 24 27 27 23 22 20 24 28 31 33 34
16 19 25 29 32 34 33 27 26 24 24 22 22 28 36 37 41 40 43 45 44 41 35 31 31 34 41 53 58 25 34 23 25 26 25 22 22 23 24 27 32 35 36
27 26 23 24 25 30 35 30 23 20 21 18 16 17 23 25 29 34 32 27 28 29 29 29 30 32 36 38 21 18 20 28 28 25 21 21 22 24 26 30 34 38 40
35 35 35 34 35 28 32 31 30 23 16 15 16 12 11 14 18 23 25 28 31 31 32 30 34 34 33 41 20 18 24 25 24 23 21 22 25 26 29 32 35 37 37
42 44 37 38 40 37 33 31 27 25 19 14 17 21 18 17 15 13 12 16 24 28 26 28 25 28 34 26 24 21 26 24 24 22 21 24 26 28 30 32 32 34 37
40 47 49 48 43 40 39 30 26 23 20 15 17 9 14 19 29 26 23 21 20 19 19 14 14 15 20 20 18 24 24 23 22 22 23 24 27 28 31 34 33 33 36
26 29 31 31 36 35 33 26 26 22 21 18 23 27 26 22 19 25 31 34 28 26 26 18 17 19 19 14 19 23 22 22 22 22 25 27 28 30 32 34 34 32 36
22 28 32 32 29 30 29 29 25 23 20 21 19 26 29 27 26 27 23 28 31 28 29 24 24 22 18 18 21 20 20 23 26 27 27 31 34 33 33 35 33 34 36
20 24 25 27 26 26 27 24 25 24 22 19 21 26 22 27 26 26 25 25 23 23 22 22 19 19 20 26 31 32 29 33 33 37 44 45 46 45 38 37 35 37 37
20 23 24 25 25 26 28 24 21 23 20 18 18 24 29 17 30 31 25 27 28 22 16 16 13 11 17 25 26 30 36 42 48 54 42 33 36 40 41 39 39 39 39
20 24 27 29 27 28 28 24 23 19 20 17 18 19 26 24 26 20 25 21 22 21 22 21 24 32 38 35 35 32 25 25 29 34 41 45 44 41 38 39 38 39 42
22 26 28 30 27 28 28 25 24 17 16 17 19 25 28 26 25 29 20 21 22 23 18 17 21 23 23 21 20 21 24 29 33 34 33 36 39 41 41 40 41 42 43
23 27 32 29 29 28 29 27 21 19 16 14 22 28 27 28 28 31 27 22 22 21 23 26 24 24 24 22 21 25 28 31 33 33 35 38 41 43 44 45 45 46 47
25 31 30 30 30 30 29 29 22 18 17 16 22 28 28 26 26 25 25 25 23 25 20 19 18 17 18 21 25 28 29 31 32 35 37 39 42 44 45 48 50 52 52
27 33 30 30 29 31 30 30 18 16 13 17 20 25 22 20 21 21 17 18 19 15 11 11 14 17 20 23 25 27 29 31 34 36 38 41 44 46 49 50 52 52 54
26 31 31 30 27 29 31 25 15 14 14 17 16 17 16 16 15 15 11 9 7 11 13 14 16 19 22 25 28 30 32 35 36 37 38 40 41 44 45 46 47 48 49
26 29 29 28 26 27 28 18 14 13 14 11 11 13 11 8 7 5 7 12 12 12 15 17 19 22 23 25 27 29 31 34 35 37 39 41 42 41 40 40 41 42 43
25 26 26 27 25 26 19 16 12 8 8 9 8 9 7 4 9 10 8 8 10 11 14 17 19 21 23 25 27 29 31 33 34 35 36 37 37 37 38 37 37 36 36
27 23 23 23 24 22 13 11 5 8 7 7 7 5 7 9 7 5 7 8 10 11 14 17 19 22 25 28 31 32 32 34 35 36 38 37 36 35 33 30 30 29 28
22 20 21 21 21 15 9 9 9 9 8 5 7 11 10 4 4 6 8 10 12 15 17 21 24 26 27 28 29 31 34 35 35 35 34 31 29 28 25 23 21 21 21

GFSMW_700_spd_279.txt.gz
Wind_Speed
14 15 18 31 28 26 26 26 26 26 28 30 34 36 37 38 41 46 50 50 49 48 47 45 44 44 41 38 40 34 32 36 34 36 36 40 40 37 36 35 36 34 32
14 15 19 25 24 24 25 26 28 28 27 31 33 36 40 43 43 44 48 50 55 55 52 50 50 49 44 45 46 49 51 45 50 51 41 41 43 40 35 32 36 34 31
16 17 23 24 25 25 24 24 25 28 31 34 37 37 40 46 47 46 47 48 57 58 58 56 55 55 51 48 50 52 58 51 45 40 50 45 47 38 41 36 24 26 27
18 23 25 26 31 31 31 33 33 32 32 34 38 41 44 45 46 48 46 47 51 58 59 60 59 57 55 52 51 53 54 55 53 47 42 46 41 42 42 28 12 20 18
21 27 29 22 24 25 28 31 34 35 35 33 33 35 42 48 45 44 45 43 44 50 54 53 55 56 56 51 50 55 55 57 55 52 42 38 43 38 44 35 24 24 20
18 17 18 20 21 22 27 30 31 31 34 36 37 39 38 39 47 46 44 41 42 45 49 46 49 49 49 45 44 52 56 55 52 47 47 43 43 44 53 36 31 29 22
14 18 23 25 28 30 34 41 35 35 32 30 31 33 36 39 41 42 40 37 37 36 34 41 46 44 44 42 41 47 57 58 54 51 50 43 39 36 33 33 33 27 25
19 24 31 35 37 32 34 38 40 31 29 32 32 32 32 22 26 26 28 31 35 34 32 31 29 29 33 31 34 44 56 57 45 51 49 41 40 29 37 36 29 28 29
23 26 28 33 42 42 41 37 42 37 29 29 30 31 29 20 19 22 25 26 29 30 24 28 28 26 30 31 33 42 57 54 56 39 30 18 37 34 36 34 29 30 31
30 33 30 30 33 41 34 36 40 41 31 30 27 27 25 22 17 15 13 20 24 30 28 27 34 27 28 32 32 29 40 28 34 23 13 16 27 35 33 31 29 30 31
38 39 34 30 31 39 44 42 39 37 30 29 27 25 23 8 16 20 18 17 12 12 18 29 38 34 28 26 25 30 37 41 35 21 23 31 31 30 29 29 28 29 29
41 37 32 29 28 30 35 36 33 31 27 25 21 25 20 23 32 26 35 18 15 17 18 20 26 25 25 29 36 38 34 26 23 27 28 27 26 26 25 25 27 30 32
39 33 27 26 27 27 30 33 31 26 26 25 22 21 28 23 26 30 29 33 26 25 21 23 26 22 27 24 24 24 23 19 21 23 25 23 20 20 22 26 28 30 32
27 21 21 23 26 27 29 30 30 26 22 23 22 21 23 23 24 29 28 26 28 25 28 25 33 33 30 25 24 20 19 19 18 21 24 23 23 26 29 35 36 37 35
18 16 20 22 26 28 30 30 27 26 24 21 22 21 22 23 26 22 30 33 31 30 23 25 27 28 29 28 24 22 20 17 21 28 31 33 36 42 44 47 45 47 44
15 17 20 23 26 29 30 30 29 27 25 19 19 19 23 22 23 21 27 27 23 18 17 18 16 11 12 15 15 14 14 15 21 30 33 36 43 40 34 40 42 46 42
17 17 21 23 28 29 32 32 31 28 26 19 16 15 20 19 24 26 26 22 20 23 21 19 18 17 16 14 16 19 22 26 32 36 43 31 34 34 37 36 36 38 40
16 18 20 21 27 31 33 33 31 28 23 20 14 16 19 20 23 22 19 20 24 24 25 27 26 20 15 16 16 16 17 20 22 23 26 30 35 33 33 34 34 37 40
18 18 20 22 28 31 33 34 33 28 21 16 18 16 19 18 17 19 18 19 21 21 20 17 13 10 10 12 12 12 15 20 23 27 27 30 33 35 37 38 40 41 42
22 21 20 27 29 31 32 34 34 26 18 15 16 16 16 15 16 17 18 17 17 17 16 13 9 11 12 12 13 15 17 20 23 25 29 30 34 36 39 41 42 43 44
25 21 22 34 29 30 31 32 33 21 15 14 15 14 13 13 13 14 15 12 10 9 8 13 14 14 15 17 18 20 21 23 26 28 29 32 35 37 39 42 43 45 46
20 18 31 26 26 25 29 30 28 17 13 11 12 12 12 11 9 9 8 5 9 12 12 13 15 18 18 20 22 24 25 26 26 28 29 31 33 34 36 37 38 39 41
19 29 28 24 27 25 26 25 21 13 10 10 12 12 11 7 3 5 8 10 10 12 13 13 14 15 16 18 20 21 23 24 25 27 30 32 34 34 34 34 35 34 34
25 26 25 24 25 24 23 19 15 10 8 9 10 9 8 2 7 8 8 7 8 10 11 13 14 15 16 18 20 22 25 28 30 32 33 33 33 33 33 31 29 29 29
24 24 23 23 22 21 20 14 11 9 7 8 7 3 6 12 11 7 6 8 9 10 12 14 15 18 21 24 29 31 32 31 32 32 34 34 32 30 28 26 26 25 24
18 17 17 18 20 17 12 10 9 8 6 3 6 12 12 7 5 6 8 9 11 13 16 19 22 24 27 28 28 28 30 33 35 36 33 30 27 25 23 21 20 21 22

GFSMW_700_spd_285.txt.gz
Wind_Speed
23 25 25 27 34 32 29 27 29 28 27 30 30 26 24 33 39 40 38 35 36 33 34 36 40 42 45 45 46 44 43 43 38 37 39 40 39 37 35 44 47 45 55
24 23 23 29 32 39 35 30 32 35 29 31 32 34 34 33 31 34 38 39 40 38 40 41 41 42 43 43 44 50 49 48 45 47 46 46 45 45 50 47 41 47 32
20 24 29 30 32 32 35 30 28 30 22 22 25 27 29 31 35 36 36 38 41 40 41 42 43 45 46 46 45 46 51 55 51 49 52 53 56 50 51 53 56 49 49
19 20 23 25 26 29 27 24 27 30 34 36 36 38 39 37 34 36 39 42 40 42 43 44 47 49 50 49 49 48 51 52 57 57 54 55 58 57 55 54 52 49 50
13 16 24 31 32 32 33 33 33 35 42 43 51 54 51 48 45 41 40 42 41 42 46 49 50 53 55 54 60 55 54 54 55 59 58 56 59 60 59 60 55 53 51
16 17 18 23 30 35 43 39 37 38 43 46 50 57 58 56 53 49 44 43 44 43 45 45 50 53 55 54 56 55 52 53 53 54 54 56 60 62 61 62 59 57 52
21 26 29 34 42 49 55 57 60 57 50 55 56 55 54 57 55 45 42 40 42 43 44 43 48 54 57 56 53 54 50 51 53 51 53 51 57 61 63 62 60 53 31
30 33 34 42 47 55 56 55 58 53 53 57 54 60 58 52 48 35 34 34 37 40 43 41 47 50 52 52 55 55 54 54 57 48 50 50 53 58 64 58 55 46 39
49 49 48 39 31 37 42 43 41 45 47 45 52 57 45 43 39 25 29 30 29 31 36 41 42 38 44 54 53 49 57 58 67 43 47 54 51 56 59 58 54 46 39
50 46 46 31 30 34 42 45 43 38 46 51 47 47 40 32 26 23 23 23 27 27 26 26 28 35 37 38 47 51 44 47 54 50 60 61 54 55 55 54 52 47 46
45 48 42 38 40 42 48 48 38 42 47 45 42 40 36 32 23 22 22 19 22 24 27 26 24 26 30 37 38 31 37 41 26 22 37 33 27 23 32 45 49 45 43
47 40 38 37 37 42 41 37 35 43 43 41 40 40 33 27 19 22 23 18 22 21 26 30 24 23 32 30 33 28 21 31 30 27 43 38 31 23 28 28 38 38 38
38 42 41 33 36 37 45 33 36 44 44 43 40 36 28 22 18 20 23 24 17 19 24 24 21 20 22 24 27 32 22 20 27 32 32 29 26 30 25 21 21 26 27
36 37 36 35 34 39 35 26 36 39 43 46 42 34 25 16 20 17 19 19 18 16 23 24 25 22 19 16 18 19 17 17 19 23 23 21 21 20 22 23 22 20 19
32 35 27 18 31 28 27 33 32 39 44 45 43 33 23 22 20 16 17 17 19 17 14 19 20 20 20 19 18 18 17 11 3 2 5 11 16 16 13 14 15 16 19
50 19 7 15 21 24 27 32 32 42 46 41 43 30 24 21 16 16 14 14 14 12 14 16 17 18 19 19 14 16 16 16 18 19 22 22 23 24 23 25 28 30 33
37 31 14 16 26 24 27 31 38 43 39 36 38 25 23 20 19 17 16 17 16 15 15 17 16 13 12 13 13 12 13 13 14 15 15 16 17 17 14 14 19 21 23
37 30 31 29 23 22 29 35 36 36 31 31 31 21 21 20 20 20 19 18 16 15 15 15 15 13 13 12 11 8 8 8 8 7 8 9 11 12 13 15 18 22 24
37 36 28 34 25 21 28 33 34 33 30 28 25 21 19 20 20 20 19 17 15 13 12 12 13 13 14 15 15 14 14 12 11 11 12 13 15 16 17 19 22 25 27
19 25 28 22 17 19 25 31 33 30 27 25 21 19 20 20 19 18 15 12 11 12 13 13 15 14 13 14 15 15 15 15 15 15 16 18 19 19 20 20 21 23 24
11 16 11 6 15 21 28 30 30 27 23 21 19 20 20 18 16 14 12 11 14 15 13 12 13 13 12 12 13 13 13 14 14 15 16 17 20 21 22 23 24 24 24
11 10 2 14 16 24 27 28 27 23 20 19 20 20 19 15 12 11 12 15 14 13 13 13 14 13 13 14 14 15 16 16 16 17 18 20 21 22 23 23 24 24 24
14 7 15 19 23 24 23 24 22 18 17 19 19 17 12 13 17 16 16 16 15 14 14 15 15 15 15 16 18 18 19 19 20 21 22 23 24 24 24 25 25 25 24
16 18 25 23 21 19 19 19 16 16 18 17 14 11 16 17 15 15 16 15 15 14 15 16 15 16 16 16 17 18 20 21 22 23 25 26 25 25 24 22 21 21 21
20 22 21 18 18 17 17 15 16 16 15 13 13 17 15 15 15 14 14 15 15 15 17 16 17 17 18 21 26 28 29 30 30 29 27 25 22 19 17 16 16 17 18
19 16 15 17 15 15 14 15 15 12 11 16 15 14 14 14 14 16 17 17 18 20 19 20 21 23 25 26 27 28 27 26 26 27 27 27 24 20 15 12 14 17 19

GFSMW_700_spd_288.txt.gz
Wind_Speed
25 28 27 27 26 24 25 31 40 37 34 41 45 40 38 35 33 32 33 30 33 37 34 34 41 43 41 39 38 45 46 46 47 48 47 47 45 43 41 39 37 32 27
17 23 27 30 32 34 35 34 35 37 35 37 43 47 39 32 33 33 32 35 35 35 37 38 39 43 48 46 46 43 43 43 49 52 50 52 50 47 45 44 43 40 40
19 23 27 31 36 40 42 44 43 37 37 38 39 42 47 47 43 43 45 45 42 39 37 37 40 43 44 50 49 49 50 49 47 50 52 54 57 51 51 51 49 47 44
21 26 31 34 37 41 44 46 42 40 42 42 45 49 48 55 57 62 58 55 56 52 47 42 40 45 46 48 52 54 56 54 53 53 52 55 54 56 58 55 54 52 48
25 31 36 40 43 49 54 57 58 59 56 57 52 52 56 62 65 66 67 67 59 52 48 47 43 42 46 49 52 53 59 67 63 51 52 56 55 53 58 61 59 53 53
27 29 32 39 46 51 55 58 59 57 58 59 57 56 45 46 51 62 63 52 51 45 44 44 43 42 44 50 52 54 55 61 65 67 54 55 57 59 57 58 60 55 54
34 40 45 50 50 50 52 52 50 51 54 56 55 50 46 50 51 52 49 45 37 33 30 33 38 40 40 45 47 52 55 55 61 48 62 61 57 56 56 54 55 59 60
45 48 50 52 53 53 46 47 48 49 50 46 42 43 43 46 48 45 43 41 28 28 29 24 26 31 35 38 44 48 46 49 55 58 58 69 62 57 57 53 53 57 60
41 49 51 48 45 43 48 50 48 44 46 45 46 44 43 42 45 45 39 29 26 19 22 26 28 27 28 30 33 35 28 29 43 43 57 45 64 70 71 59 62 54 59
49 53 44 42 44 47 43 44 44 47 40 43 42 42 43 42 44 42 31 21 33 20 31 29 22 26 26 25 27 30 28 31 34 49 54 59 37 39 67 62 58 65 62
51 41 31 34 36 37 43 45 43 42 37 36 41 44 43 44 42 32 24 24 27 19 16 14 21 25 24 25 27 25 27 30 32 36 38 45 38 52 50 52 62 65 69
38 32 29 27 32 35 44 40 38 30 34 38 45 46 46 44 35 28 25 22 24 20 17 10 16 18 17 17 18 20 21 20 23 25 22 20 25 21 24 26 19 29 37
44 39 35 40 45 49 37 33 30 33 35 43 48 49 45 41 30 26 20 18 19 21 18 15 16 17 14 15 15 15 16 19 19 14 20 27 32 28 32 27 25 25 31
60 59 52 44 38 40 22 27 32 34 39 46 48 42 41 32 27 25 20 17 15 17 14 14 15 16 17 18 18 16 14 14 14 18 18 22 26 29 30 34 27 28 30
57 47 40 31 32 36 25 24 27 36 40 42 36 37 33 28 26 23 21 20 20 18 16 15 13 15 17 17 18 17 14 14 14 11 9 12 11 10 6 10 10 13 15
51 37 25 21 30 29 27 21 30 33 40 36 33 32 30 27 26 23 23 22 20 16 12 12 11 13 15 15 13 13 12 13 11 12 15 16 14 13 10 12 14 16 21
43 34 26 28 23 24 22 22 27 36 38 34 29 29 27 25 25 24 22 21 19 19 16 12 11 9 13 12 11 6 7 7 7 7 5 5 7 11 13 17 22 26 28
31 23 19 18 22 22 18 23 29 35 33 30 27 26 25 23 23 22 21 18 16 16 16 17 18 15 13 15 16 15 15 13 12 12 10 9 8 8 9 11 12 14 15
27 24 19 10 22 21 13 22 30 31 28 25 24 24 24 24 23 20 18 16 16 15 16 19 19 17 15 15 15 13 12 11 13 10 8 7 7 9 10 11 13 15 18
24 25 22 16 12 16 19 24 25 27 23 23 22 23 22 21 20 17 16 17 18 17 16 16 15 15 15 15 16 17 16 15 12 11 12 13 13 13 12 13 15 16 17
25 24 18 18 20 24 24 23 23 22 22 23 22 21 19 17 15 16 14 17 17 17 16 15 15 15 15 16 16 16 16 16 16 16 16 15 15 15 14 14 14 15 16
20 21 25 25 24 22 21 21 22 22 22 20 20 17 15 16 17 18 18 17 17 18 17 17 17 16 17 18 18 19 19 18 17 17 18 18 18 18 18 18 18 18 18
20 22 23 23 22 22 22 21 21 21 19 18 15 15 16 17 18 17 17 16 16 15 15 14 15 16 18 20 20 21 21 21 22 23 23 23 22 21 20 19 17 17 17
24 20 21 23 24 23 22 21 20 18 17 14 15 17 18 19 19 19 17 17 16 15 15 15 16 17 17 18 19 21 22 24 25 26 27 27 25 22 20 18 17 17 17
21 19 21 23 22 20 19 18 16 14 13 16 18 18 18 18 18 17 17 17 17 17 18 18 20 21 22 25 28 29 30 31 32 31 28 25 21 17 14 13 14 15 16
17 19 20 20 18 17 16 15 14 14 17 18 17 17 18 18 19 19 20 20 20 21 23 23 24 27 28 28 29 31 32 33 31 29 24 21 19 16 14 12 13 16 18

GFSMW_700_spd_291.txt.gz
Wind_Speed
17 21 24 28 31 32 33 34 36 39 44 48 51 53 56 43 41 46 42 40 41 40 40 39 37 37 39 40 37 41 45 46 41 45 45 45 45 44 44 45 45 44 41
18 23 28 33 37 40 44 47 49 51 52 54 54 52 52 55 52 51 54 55 49 51 51 50 46 39 43 42 44 47 48 45 39 40 39 44 49 48 46 46 48 46 46
21 27 32 38 42 46 50 53 57 60 62 64 66 67 68 65 64 61 56 55 60 65 61 57 55 50 43 45 46 46 46 49 44 41 41 44 45 43 50 50 49 47 52
26 31 37 42 48 53 55 56 55 55 55 57 60 61 63 65 61 59 55 49 48 53 53 44 45 51 46 45 45 45 50 50 47 50 51 52 49 44 48 44 50 53 53
31 38 43 47 50 53 54 56 55 52 51 52 53 55 56 53 49 46 46 46 49 48 46 37 33 36 41 42 43 42 44 48 49 49 50 51 60 63 64 52 47 53 58
38 43 48 52 54 55 56 53 51 51 50 51 54 56 54 47 45 47 48 46 46 44 40 31 25 27 31 34 39 40 42 45 47 47 48 50 54 58 61 66 59 55 56
45 49 52 52 55 55 52 49 49 50 49 50 51 55 48 45 47 48 47 47 46 42 35 32 29 29 25 29 32 38 40 43 44 46 46 45 52 58 58 55 72 66 57
49 50 52 54 52 46 43 40 41 44 45 48 48 47 44 51 50 50 48 46 48 40 30 24 30 31 28 23 25 28 34 39 40 43 44 38 47 56 57 58 51 67 60
51 52 49 42 37 36 34 34 38 44 52 44 44 41 44 52 50 47 45 43 42 36 30 31 29 17 27 24 19 22 29 28 29 31 30 34 37 38 54 47 52 50 60
47 46 38 32 33 38 38 42 47 50 41 38 40 43 49 52 50 46 40 36 36 33 25 26 18 21 19 20 20 18 18 21 21 24 27 26 33 39 43 52 50 47 54
60 62 59 56 51 50 45 43 43 44 33 37 43 46 47 44 42 43 34 30 30 26 24 20 30 14 6 10 12 14 15 17 18 20 20 23 26 24 32 39 45 46 41
64 65 64 47 37 34 34 35 31 31 35 35 39 43 41 40 40 35 29 26 25 23 21 20 19 14 9 13 10 8 10 11 12 15 17 15 12 5 9 15 18 27 43
66 61 50 34 36 35 30 36 33 29 31 36 41 40 39 38 35 31 29 26 26 25 23 20 21 17 14 13 15 13 11 11 11 12 13 15 21 21 21 28 24 19 15
55 49 43 36 21 19 26 29 27 22 30 38 41 39 37 36 30 29 28 27 26 25 23 21 19 16 16 12 13 14 13 14 11 9 9 10 13 17 21 22 24 28 21
43 41 37 28 22 16 27 27 24 26 32 39 39 36 35 32 29 28 27 26 25 22 20 19 16 13 14 11 13 13 14 14 13 12 12 13 14 6 4 4 5 13 19
35 38 33 25 15 13 25 27 24 29 36 37 34 34 32 30 28 27 26 24 22 20 20 19 17 14 19 22 20 16 17 16 14 11 10 10 10 10 10 6 4 6 4
35 33 32 20 17 22 28 23 26 32 34 33 31 31 29 28 27 26 25 22 19 22 21 19 19 20 18 18 17 19 19 19 19 18 17 16 13 9 6 3 6 11 15
33 25 23 22 25 25 23 24 29 30 31 29 30 28 27 26 24 23 22 20 19 21 23 23 23 22 21 19 17 16 16 14 16 17 15 14 14 14 13 11 9 8 7
23 22 25 24 23 23 25 26 27 27 28 28 26 25 25 23 23 21 20 21 21 21 21 21 21 20 20 21 20 18 17 15 14 13 14 14 13 13 14 12 11 10 10
22 23 25 24 24 25 26 27 28 27 26 23 23 24 23 23 24 24 22 21 22 23 23 23 22 22 20 20 20 19 19 18 16 16 15 14 12 10 10 10 11 11 12
24 26 28 27 24 25 26 26 25 24 21 22 24 23 22 22 23 23 23 23 24 24 23 23 22 21 20 20 20 19 18 18 18 16 15 13 12 12 12 11 10 10 11
22 27 26 24 24 24 25 25 22 21 21 22 22 21 22 23 23 23 24 23 23 22 22 22 22 22 22 23 23 23 23 22 21 19 18 16 15 14 13 12 13 13 13
24 24 23 24 25 25 24 22 19 20 20 21 21 23 24 23 23 23 22 22 21 19 19 20 20 22 22 23 24 26 26 25 25 23 21 21 20 19 17 15 13 13 12
22 20 22 24 23 21 20 18 18 19 20 21 22 22 22 22 22 21 20 19 18 19 20 20 20 22 22 23 25 27 27 27 27 26 26 24 21 18 16 16 14 14 14
18 20 21 21 18 16 17 18 18 18 19 21 22 22 21 21 20 20 19 20 20 21 22 22 23 24 25 30 33 32 31 32 31 31 28 26 23 21 19 18 17 16 16
17 19 20 17 14 12 16 17 17 18 20 21 21 22 22 22 22 22 22 23 24 25 25 25 25 27 30 31 31 30 31 30 28 26 23 22 21 20 18 17 17 18 18

GFSMW_700_spd_297.txt.gz
Wind_Speed
21 24 27 31 36 40 44 50 56 59 60 60 61 60 58 53 49 49 47 38 37 37 36 36 37 38 39 39 41 45 49 51 47 41 42 45 45 48 53 63 55 53 55
20 25 31 36 41 47 52 57 60 61 60 60 59 55 52 50 50 52 53 46 39 39 39 40 41 40 41 39 38 41 43 50 52 46 48 45 42 42 45 58 60 49 45
27 30 35 39 46 53 57 61 62 62 59 56 52 46 46 49 51 51 50 47 47 44 43 43 44 43 42 41 38 38 42 43 46 48 45 46 46 40 47 40 54 62 52
29 35 42 47 52 56 58 60 60 57 54 51 48 47 51 51 47 46 46 47 48 49 46 41 42 43 42 38 37 38 43 38 42 44 46 49 47 45 45 45 44 54 65
33 37 43 50 55 57 60 57 52 46 45 45 46 46 45 45 44 45 46 46 45 45 45 42 37 37 36 34 33 35 42 33 32 40 43 47 51 51 54 52 48 47 52
36 42 48 53 56 58 55 54 49 40 38 40 43 41 43 42 45 48 47 45 46 46 42 35 30 28 31 28 27 27 33 38 32 34 38 40 40 45 49 45 35 33 32
42 46 52 57 58 57 57 53 45 40 38 38 42 40 39 42 48 48 46 46 46 43 37 34 31 28 26 24 24 24 26 31 32 34 34 37 38 38 46 43 38 35 35
44 49 54 55 54 55 53 46 35 34 34 35 38 36 39 44 47 46 46 46 43 40 38 34 31 27 26 25 25 23 22 24 27 29 34 36 38 38 40 42 39 39 39
46 49 50 50 52 51 47 38 31 32 32 34 34 36 41 45 45 45 45 42 39 36 36 34 31 28 25 24 23 21 17 12 12 10 27 33 36 37 40 41 39 45 41
45 46 46 48 48 46 40 31 30 34 36 32 34 40 44 43 43 43 42 39 36 34 34 32 30 28 26 24 22 18 15 15 3 2 9 22 28 30 35 38 38 40 40
43 42 43 42 41 41 34 32 34 33 33 34 38 41 43 43 42 42 39 37 35 34 33 32 30 27 26 22 19 16 11 11 4 1 4 7 8 16 16 30 30 34 37
39 39 37 34 33 32 32 32 33 34 37 41 41 42 42 41 41 38 36 34 33 31 31 30 26 23 23 18 11 9 8 8 4 5 2 8 7 11 13 9 14 19 21
36 33 29 28 27 33 35 35 36 38 39 41 41 41 40 39 37 34 32 30 29 30 30 32 29 31 30 28 23 19 16 9 11 5 3 1 2 5 8 12 12 14 17
31 27 27 25 29 33 34 36 36 36 37 38 39 38 37 36 33 31 29 29 29 30 30 31 33 34 34 34 31 26 22 22 20 14 5 2 3 1 3 6 7 11 14
27 26 26 28 31 34 35 35 35 36 36 36 35 35 32 30 30 30 28 28 28 29 29 28 27 26 27 26 23 27 26 20 20 20 18 11 4 4 4 3 6 8 9
27 25 26 29 32 34 33 34 36 36 35 34 32 29 28 29 30 28 28 28 27 27 28 28 29 29 27 26 24 20 20 21 21 16 15 16 17 14 10 7 4 6 10
25 25 27 30 33 32 33 34 34 34 32 30 27 27 29 29 29 28 27 25 27 28 28 28 28 29 29 29 29 27 25 22 19 16 14 12 12 12 10 11 13 12 3
24 24 26 29 30 30 32 33 31 29 26 26 27 27 27 27 27 26 27 27 26 26 27 27 29 29 29 29 29 28 26 24 21 18 16 13 11 10 8 8 8 7 6
23 23 26 29 29 30 30 29 26 23 26 27 25 26 26 26 26 25 26 28 29 30 31 30 29 29 29 29 28 27 24 23 20 19 17 15 13 12 10 9 7 6 4
21 22 25 26 26 28 25 23 20 22 25 25 25 25 25 25 26 27 28 30 31 31 31 31 32 32 31 31 31 30 30 26 24 22 18 16 12 11 10 10 10 9 7
20 21 23 22 24 24 19 19 21 22 23 24 25 25 26 27 28 29 29 29 29 28 27 29 30 29 30 30 30 30 30 30 30 27 24 21 18 16 14 14 12 11 11
19 21 20 21 23 19 15 19 19 20 21 21 22 24 25 26 27 27 27 27 25 24 24 26 26 27 29 29 28 29 29 28 26 26 26 25 24 22 20 18 17 17 17
18 19 18 20 20 15 15 17 18 19 18 20 22 23 24 24 24 24 25 24 22 20 20 22 24 25 27 27 27 28 28 28 27 27 27 26 24 22 21 19 18 17 15
17 16 17 19 17 12 15 16 17 17 16 19 20 21 21 22 23 23 22 22 20 19 19 20 22 25 26 26 27 25 28 29 28 28 27 26 25 24 22 20 18 17 16
14 15 17 17 11 10 12 13 14 15 15 18 20 20 21 22 23 24 24 25 24 24 24 23 23 24 28 31 32 29 28 28 27 25 24 23 22 21 20 20 19 17 16
13 15 16 11 7 9 9 11 13 13 15 19 18 20 24 25 25 25 26 27 28 28 26 25 26 27 30 31 31 29 27 26 25 23 23 24 23 22 21 20 19 17 16

GFSMW_700_spd_300.txt.gz
Wind_Speed
20 24 29 34 38 42 47 54 58 60 61 61 59 56 54 51 50 51 49 43 40 38 36 37 34 37 38 39 40 43 45 46 48 55 57 61 54 49 45 45 45 50 57
23 28 33 36 41 48 53 57 58 59 57 54 51 47 45 45 42 40 38 40 41 40 38 37 36 35 36 39 43 43 44 42 44 49 55 58 60 55 50 45 45 43 42
28 32 35 41 47 51 56 57 55 55 55 50 44 41 40 36 34 34 38 43 43 42 41 40 39 37 35 37 42 40 42 42 39 44 46 54 61 59 49 50 45 44 41
28 34 40 46 50 53 53 52 54 52 47 43 38 37 40 38 37 40 46 47 45 44 43 42 40 35 33 34 39 38 37 38 38 40 40 39 51 55 55 45 41 45 40
31 38 45 48 49 49 49 50 49 46 39 35 33 37 38 36 39 45 47 46 45 43 41 38 36 34 33 32 34 34 33 34 32 36 37 34 41 44 50 55 49 35 38
34 41 44 47 46 46 47 46 44 41 35 35 36 39 36 39 45 46 46 46 46 44 40 36 34 33 33 32 30 29 27 25 24 30 31 32 32 45 43 53 47 44 51
37 41 42 41 44 44 44 40 39 37 36 37 37 36 39 44 45 46 46 46 45 42 39 36 35 33 32 31 30 27 26 26 24 27 33 35 31 35 39 42 48 53 47
37 39 39 40 40 39 37 34 35 35 35 37 41 40 43 44 45 45 44 43 41 39 38 36 35 33 32 30 28 25 23 22 23 23 28 34 32 26 37 31 40 37 33
35 37 37 36 35 32 32 33 35 37 38 39 40 41 40 41 42 42 41 38 37 35 35 35 33 32 32 30 26 22 20 19 18 17 19 21 25 34 26 37 32 37 41
33 33 33 32 31 29 33 36 37 39 39 39 38 39 40 41 40 38 36 34 32 32 32 33 30 28 27 26 21 17 14 14 13 12 12 9 19 19 32 28 30 38 38
32 31 30 29 29 29 34 35 37 37 38 38 39 40 39 37 35 34 32 31 30 31 31 32 34 31 28 28 22 10 9 6 6 7 9 2 7 10 16 27 34 36 32
30 29 28 27 28 31 32 35 35 36 38 40 40 39 35 33 31 32 31 30 30 30 30 30 31 34 37 35 28 20 16 9 7 4 3 2 2 3 8 8 15 27 30
27 27 26 26 28 31 33 33 34 37 39 38 36 33 32 31 32 32 31 30 30 30 29 28 28 30 30 29 32 30 23 16 15 12 8 6 3 1 6 12 16 16 22
26 25 25 26 28 32 32 33 35 36 36 33 31 30 32 32 33 32 31 30 29 28 28 28 28 29 29 28 26 25 26 26 21 18 15 11 5 3 2 5 7 11 13
23 23 25 27 29 32 31 32 33 32 29 28 30 32 33 32 31 30 28 28 28 28 28 29 29 30 29 29 27 25 24 21 22 20 18 18 13 4 2 2 5 7 8
23 24 25 26 29 29 29 31 29 25 26 28 31 33 32 31 29 29 27 25 26 28 29 28 30 31 31 30 29 27 24 22 19 17 16 16 17 16 10 3 3 3 6
22 24 24 25 28 27 29 28 24 21 26 28 29 29 28 27 27 27 26 25 26 27 28 31 33 33 32 33 31 26 24 23 20 18 16 14 12 12 13 13 7 4 3
22 22 23 25 26 26 28 25 21 21 26 28 27 26 26 26 25 25 25 25 26 27 28 29 30 31 32 33 33 33 31 26 22 19 17 15 14 12 11 9 9 9 8
21 22 22 23 23 25 25 21 20 21 25 25 23 22 24 24 25 25 26 26 27 27 29 29 31 32 30 30 30 31 32 32 29 24 21 19 17 15 14 12 9 7 6
20 21 21 22 21 23 21 20 20 21 22 22 22 22 22 24 25 27 28 28 28 29 30 30 30 30 30 28 28 28 28 27 28 28 27 24 21 19 17 16 14 12 10
20 19 20 19 20 21 18 19 20 19 20 21 20 21 23 24 26 27 27 27 26 26 27 28 29 30 30 27 26 26 25 25 24 24 23 22 21 20 19 18 16 15 14
17 17 17 17 19 19 14 17 17 17 18 18 19 21 21 23 24 25 25 24 23 22 22 23 24 26 28 27 24 26 26 25 24 24 23 22 20 19 18 17 16 15 14
16 16 14 16 18 16 12 14 15 15 17 17 18 19 21 21 21 22 22 21 21 20 19 20 22 25 27 27 24 26 26 26 26 26 26 25 23 21 20 18 17 16 14
14 13 14 16 16 11 11 12 12 13 15 16 17 19 20 21 21 22 21 21 22 20 19 19 21 24 27 28 26 25 26 26 26 26 25 24 23 22 20 18 16 15 14
12 13 14 15 11 9 9 10 11 12 14 15 17 18 20 20 22 23 24 26 25 25 23 22 23 24 27 30 30 29 28 27 26 25 24 23 22 20 19 18 16 14 13
12 13 13 11 6 7 7 8 10 11 14 16 17 19 20 22 24 26 26 27 28 28 26 24 24 25 28 29 29 28 27 25 24 24 24 24 24 22 20 18 16 13 12